Location: Fontaneda
(42.4540°N, 1.4647°E)
Time: 16:52:48
(UTC+00:00)

Cosmos 1844 Rocket - Visible Passes

Search period start: 13 November 2025 00:00
Search period end: 23 November 2025 00:00
Orbit: 824 x 843 km, 71.0° (Epoch: 13 November)

Date Brightness Start Highest point End Pass type
(mag) Time Alt. Az. Time Alt. Az. Time Alt. Az.
13 Nov 5.0 17:39:19 10° W 17:42:59 18° NW 17:46:40 10° N visible
14 Nov 4.9 17:21:24 10° W 17:25:19 19° NW 17:29:14 10° N visible
15 Nov 4.8 17:03:32 10° W 17:07:39 21° NW 17:11:48 10° N visible
